Sunlight Mountain, CO

2:35 AM MDT on March 26, 2017 (GMT -0600)
Sunlight Mountain

Weather History for K5SM - May, 2014

Change the Weather History Date:

Tuesday, May 6, 2014

  Actual Average (KRIL) Record (KRIL)
Temperature  
Mean Temperature 43 °F -  
Max Temperature 51 °F 67 °F 86 °F (1966)
Min Temperature 35 °F 37 °F 20 °F (1982)
Degree Days  
Heating Degree Days 22    
Moisture  
Dew Point 20 °F    
Average Humidity 42    
Maximum Humidity 56    
Minimum Humidity 26    
Precipitation  
Precipitation 0.00 in - - ()
Sea Level Pressure  
Sea Level Pressure 29.95 in    
Wind  
Wind Speed 1 mph (SSW)    
Max Wind Speed 5 mph    
Max Gust Speed -    
Visibility 10 miles    
Events      
Averages and records for this station are not official NWS values.
T = Trace of Precipitation, MM = Missing Value Source: NWS Daily Summary

Daily Weather History Graph

Daily Weather History Graph

Search for Another Location

Airport or City:

Trip Planner

Search our weather history database for the weather conditions in past years. The results will help you decide how hot, cold, wet, or windy it might be!

Date:

Astronomy

May. 06, 2014 Rise Set
Actual Time 6:04 AM MDT 8:08 PM MDT
Civil Twilight 5:35 AM MDT 8:37 PM MDT
Nautical Twilight 4:59 AM MDT 9:13 PM MDT
Astronomical Twilight 4:20 AM MDT 9:53 PM MDT
Moon 12:23 PM MDT (5/6) 1:29 AM MDT (5/6)
Length of Visible Light 15h 02m
Length of Day
14h 03m
Waxing Crescent, 46% of the Moon is Illuminated
May 6
Waxing Crescent
May 6
First Quarter
May 14
Full
May 21
Last Quarter
May 28
New

Hourly Weather History & Observations

Time (MDT) Temp. Windchill Dew Point Humidity Pressure Visibility Wind Dir Wind Speed Gust Speed Precip Events Conditions
12:19 AM 41.0 °F - 17.6 °F 39% 30.07 in 10.0 mi Calm Calm - N/A   Clear
12:39 AM 39.2 °F - 17.6 °F 42% 30.06 in 10.0 mi Calm Calm - N/A   Clear
12:59 AM 39.2 °F 35.9 °F 17.6 °F 42% 30.05 in 10.0 mi SW 4.6 mph - N/A   Clear
1:18 AM 37.4 °F - 17.6 °F 45% 30.04 in 10.0 mi Calm Calm - N/A   Clear
1:39 AM 39.2 °F - 17.6 °F 42% 30.03 in 10.0 mi Calm Calm - N/A   Scattered Clouds
1:58 AM 39.2 °F - 17.6 °F 42% 30.02 in 10.0 mi Calm Calm - N/A   Mostly Cloudy
2:39 AM 37.4 °F - 17.6 °F 45% 30.00 in 10.0 mi Calm Calm - N/A   Mostly Cloudy
2:59 AM 37.4 °F 34.9 °F 17.6 °F 45% 30.00 in 10.0 mi SW 3.5 mph - N/A   Scattered Clouds
3:19 AM 37.4 °F 34.9 °F 19.4 °F 48% 30.00 in 10.0 mi SSW 3.5 mph - N/A   Scattered Clouds
3:39 AM 37.4 °F - 19.4 °F 48% 30.01 in 10.0 mi Calm Calm - N/A   Scattered Clouds
3:59 AM 37.4 °F - 19.4 °F 48% 30.02 in 10.0 mi Calm Calm - N/A   Scattered Clouds
4:19 AM 37.4 °F - 19.4 °F 48% 30.02 in 10.0 mi Calm Calm - N/A   Scattered Clouds
4:39 AM 35.6 °F - 19.4 °F 52% 30.01 in 10.0 mi Calm Calm - N/A   Mostly Cloudy
5:59 AM 37.4 °F - 19.4 °F 48% 30.00 in 10.0 mi Calm Calm - N/A   Mostly Cloudy
6:18 AM 35.6 °F 31.7 °F 21.2 °F 56% 29.99 in 7.0 mi SSW 4.6 mph - N/A   Mostly Cloudy
6:39 AM 35.6 °F 32.8 °F 21.2 °F 56% 29.99 in 10.0 mi South 3.5 mph - N/A   Mostly Cloudy
6:59 AM 35.6 °F - 21.2 °F 56% 29.99 in 10.0 mi Calm Calm - N/A   Scattered Clouds
7:20 AM 35.6 °F 32.8 °F 19.4 °F 52% 29.98 in 10.0 mi SSW 3.5 mph - N/A   Clear
8:19 AM 37.4 °F - 19.4 °F 48% 29.98 in 10.0 mi Calm Calm - N/A   Clear
8:40 AM 41.0 °F 39.0 °F 21.2 °F 45% 29.98 in 10.0 mi SSW 3.5 mph - N/A   Clear
9:00 AM 41.0 °F - 21.2 °F 45% 29.99 in 10.0 mi Calm Calm - N/A   Clear
9:20 AM 41.0 °F - 21.2 °F 45% 29.99 in 10.0 mi Calm Calm - N/A   Clear
10:00 AM 44.6 °F - 21.2 °F 39% 29.99 in 10.0 mi Calm Calm - N/A   Scattered Clouds
10:20 AM 44.6 °F 43.1 °F 21.2 °F 39% 29.98 in 10.0 mi South 3.5 mph - N/A   Scattered Clouds
10:40 AM 44.6 °F 43.1 °F 21.2 °F 39% 29.97 in 10.0 mi SW 3.5 mph - N/A   Clear
11:00 AM 46.4 °F 45.2 °F 21.2 °F 37% 29.97 in 10.0 mi WSW 3.5 mph - N/A   Scattered Clouds
11:20 AM 44.6 °F 43.1 °F 21.2 °F 39% 29.96 in 10.0 mi SSW 3.5 mph - N/A   Clear
11:40 AM 46.4 °F 45.2 °F 21.2 °F 37% 29.96 in 10.0 mi SW 3.5 mph - N/A   Clear
11:59 AM 46.4 °F - 21.2 °F 37% 29.96 in 10.0 mi Calm Calm - N/A   Scattered Clouds
12:20 PM 46.4 °F - 21.2 °F 37% 29.95 in 10.0 mi Calm Calm - N/A   Scattered Clouds
12:40 PM 46.4 °F - 19.4 °F 34% 29.95 in 10.0 mi Calm Calm - N/A   Clear
12:59 PM 50.0 °F - 19.4 °F 30% 29.94 in 10.0 mi South 4.6 mph - N/A   Scattered Clouds
1:19 PM 48.2 °F - 19.4 °F 32% 29.93 in 10.0 mi Calm Calm - N/A   Scattered Clouds
1:40 PM 50.0 °F - 17.6 °F 28% 29.93 in 10.0 mi South 3.5 mph - N/A   Scattered Clouds
2:00 PM 50.0 °F - 19.4 °F 30% 29.92 in 10.0 mi Calm Calm - N/A   Clear
2:20 PM 50.0 °F - 19.4 °F 30% 29.91 in 10.0 mi Calm Calm - N/A   Clear
2:40 PM 51.8 °F - 17.6 °F 26% 29.91 in 10.0 mi Calm Calm - N/A   Clear
3:00 PM 50.0 °F - 17.6 °F 28% 29.90 in 10.0 mi South 3.5 mph - N/A   Scattered Clouds
3:20 PM 50.0 °F - 21.2 °F 32% 29.90 in 10.0 mi South 3.5 mph - N/A   Clear
3:40 PM 48.2 °F - 19.4 °F 32% 29.90 in 10.0 mi Calm Calm - N/A   Clear
4:00 PM 50.0 °F - 19.4 °F 30% 29.89 in 10.0 mi Calm Calm - N/A   Clear
4:20 PM 48.2 °F - 19.4 °F 32% 29.89 in 10.0 mi Calm Calm - N/A   Clear
4:40 PM 50.0 °F - 19.4 °F 30% 29.89 in 10.0 mi Calm Calm - N/A   Clear
4:59 PM 44.6 °F - 19.4 °F 37% 29.90 in 10.0 mi Calm Calm - N/A   Clear
5:20 PM 42.8 °F - 19.4 °F 39% 29.89 in 10.0 mi Calm Calm - N/A   Mostly Cloudy
5:39 PM 42.8 °F - 21.2 °F 42% 29.89 in 10.0 mi Calm Calm - N/A   Scattered Clouds
6:00 PM 42.8 °F - 21.2 °F 42% 29.90 in 10.0 mi Calm Calm - N/A   Scattered Clouds
6:20 PM 42.8 °F - 23.0 °F 46% 29.90 in 10.0 mi Calm Calm - N/A   Scattered Clouds
6:40 PM 42.8 °F - 21.2 °F 42% 29.90 in 10.0 mi Calm Calm - N/A   Scattered Clouds
7:00 PM 42.8 °F - 21.2 °F 42% 29.91 in 10.0 mi Calm Calm - N/A   Clear
7:20 PM 41.0 °F - 21.2 °F 45% 29.91 in 10.0 mi Calm Calm - N/A   Clear
7:40 PM 41.0 °F - 19.4 °F 42% 29.91 in 10.0 mi Calm Calm - N/A   Clear
7:59 PM 41.0 °F - 21.2 °F 45% 29.90 in 10.0 mi Calm Calm - N/A   Clear
8:20 PM 39.2 °F - 21.2 °F 49% 29.91 in 10.0 mi Calm Calm - N/A   Clear
8:39 PM 41.0 °F - 19.4 °F 42% 29.91 in 10.0 mi Calm Calm - N/A   Clear
9:00 PM 41.0 °F - 17.6 °F 39% 29.93 in 10.0 mi Calm Calm - N/A   Clear
9:20 PM 39.2 °F - 19.4 °F 45% 29.92 in 10.0 mi Calm Calm - N/A   Scattered Clouds
9:39 PM 37.4 °F - 17.6 °F 45% 29.93 in 10.0 mi Calm Calm - N/A   Scattered Clouds
9:59 PM 37.4 °F - 17.6 °F 45% 29.93 in 10.0 mi Calm Calm - N/A   Scattered Clouds
10:19 PM 37.4 °F - 17.6 °F 45% 29.93 in 10.0 mi Calm Calm - N/A   Scattered Clouds
10:39 PM 37.4 °F - 21.2 °F 52% 29.91 in 10.0 mi Calm Calm - N/A   Mostly Cloudy
10:59 PM 37.4 °F 34.9 °F 19.4 °F 48% 29.91 in 10.0 mi South 3.5 mph - N/A   Scattered Clouds
11:19 PM 37.4 °F - 19.4 °F 48% 29.93 in 10.0 mi Calm Calm - N/A   Scattered Clouds
11:39 PM 35.6 °F - 21.2 °F 56% 29.91 in 10.0 mi Calm Calm - N/A   Overcast
11:59 PM 35.6 °F - 19.4 °F 52% 29.90 in 10.0 mi Calm Calm - N/A   Mostly Cloudy